When you browse on this site, cookies collect data to enhance your experience and personalize the content and advertising you see.
Visit our Privacy Policy to learn more. By continuing to use the site, you agree to this use of cookies and data.
  • In Romania
  • List of Countries
  • For 7 days
  • Water Temperature
  • Weather Map
  • Weather Widgets
  • user-avatar
    Login

    Hourly Weather Savigny-le-Temple

    Today, 19 September, Thursday

    Time Temperature Precipitation Wind Pressure Humidity
    00:00 +12°C° 0 mm 4 mps 762 mmHg 65%
    01:00 +11°C° 0 mm 4 mps 762 mmHg 67%
    02:00 +11°C° 0 mm 4 mps 762 mmHg 70%
    03:00 +10°C° 0 mm 4 mps 762 mmHg 72%
    04:00 +10°C° 0 mm 4 mps 762 mmHg 74%
    05:00 +10°C° 0 mm 4 mps 762 mmHg 75%
    06:00 +8°C° 0 mm 4 mps 762 mmHg 77%
    07:00 +10°C° 0 mm 5 mps 763 mmHg 67%
    08:00 +14°C° 0 mm 5 mps 763 mmHg 58%
    09:00 +16°C° 0 mm 6 mps 763 mmHg 49%
    10:00 +17°C° 0 mm 6 mps 763 mmHg 45%
    11:00 +19°C° 0 mm 6 mps 763 mmHg 41%
    12:00 +20°C° 0 mm 6 mps 763 mmHg 37%
    13:00 +20°C° 0 mm 6 mps 762 mmHg 36%
    14:00 +21°C° 0 mm 6 mps 762 mmHg 34%
    15:00 +21°C° 0 mm 6 mps 762 mmHg 33%
    16:00 +20°C° 0 mm 5 mps 762 mmHg 37%
    17:00 +17°C° 0 mm 5 mps 761 mmHg 41%
    18:00 +17°C° 0 mm 4 mps 761 mmHg 45%
    19:00 +15°C° 0 mm 4 mps 762 mmHg 48%
    20:00 +14°C° 0 mm 4 mps 762 mmHg 52%
    21:00 +13°C° 0 mm 4 mps 762 mmHg 55%
    22:00 +12°C° 0 mm 4 mps 762 mmHg 56%
    23:00 +11°C° 0 mm 4 mps 762 mmHg 57%

    Tomorrow, 20 September, Friday

    Time Temperature Precipitation Wind Pressure Humidity
    00:00 +11°C° 0 mm 4 mps 762 mmHg 58%
    01:00 +10°C° 0 mm 4 mps 761 mmHg 58%
    02:00 +10°C° 0 mm 4 mps 761 mmHg 59%
    03:00 +8°C° 0 mm 4 mps 761 mmHg 60%
    04:00 +8°C° 0 mm 4 mps 760 mmHg 60%
    05:00 +8°C° 0 mm 4 mps 760 mmHg 61%
    06:00 +8°C° 0 mm 4 mps 760 mmHg 62%
    07:00 +10°C° 0 mm 5 mps 760 mmHg 55%
    08:00 +13°C° 0 mm 5 mps 760 mmHg 48%
    09:00 +15°C° 0 mm 6 mps 760 mmHg 41%
    10:00 +17°C° 0 mm 6 mps 759 mmHg 36%
    11:00 +20°C° 0 mm 6 mps 758 mmHg 32%
    12:00 +22°C° 0 mm 6 mps 758 mmHg 27%
    13:00 +22°C° 0 mm 6 mps 757 mmHg 26%
    14:00 +23°C° 0 mm 6 mps 756 mmHg 25%
    15:00 +24°C° 0 mm 6 mps 756 mmHg 24%
    16:00 +22°C° 0 mm 5 mps 756 mmHg 28%
    17:00 +20°C° 0 mm 5 mps 755 mmHg 32%
    18:00 +19°C° 0 mm 4 mps 755 mmHg 36%
    19:00 +18°C° 0 mm 4 mps 755 mmHg 39%
    20:00 +17°C° 0 mm 4 mps 755 mmHg 42%
    21:00 +15°C° 0 mm 4 mps 755 mmHg 45%
    22:00 +14°C° 0 mm 4 mps 754 mmHg 50%
    23:00 +13°C° 0 mm 4 mps 754 mmHg 54%

    Day after tomorrow, 21 September, Saturday

    Time Temperature Precipitation Wind Pressure Humidity
    00:00 +13°C° 0 mm 3 mps 754 mmHg 58%
    01:00 +12°C° 0 mm 3 mps 753 mmHg 62%
    02:00 +12°C° 0 mm 3 mps 753 mmHg 66%
    03:00 +12°C° 0 mm 3 mps 753 mmHg 69%
    04:00 +13°C° 0 mm 2 mps 753 mmHg 74%
    05:00 +13°C° 0 mm 2 mps 753 mmHg 78%
    06:00 +13°C° 0 mm 2 mps 752 mmHg 83%
    07:00 +16°C° 0 mm 2 mps 752 mmHg 74%
    08:00 +19°C° 0 mm 3 mps 752 mmHg 65%
    09:00 +22°C° 0 mm 3 mps 752 mmHg 56%
    10:00 +25°C° 0 mm 3 mps 752 mmHg 50%
    11:00 +27°C° 0 mm 3 mps 751 mmHg 44%
    12:00 +29°C° 0 mm 4 mps 751 mmHg 39%
    13:00 +29°C° 0 mm 4 mps 750 mmHg 37%
    14:00 +30°C° 0 mm 4 mps 750 mmHg 35%
    15:00 +30°C° 0 mm 4 mps 749 mmHg 34%
    16:00 +28°C° 0 mm 3 mps 749 mmHg 38%
    17:00 +27°C° 0 mm 3 mps 749 mmHg 42%
    18:00 +25°C° 0 mm 2 mps 748 mmHg 47%
    19:00 +24°C° 0 mm 3 mps 748 mmHg 51%
    20:00 +23°C° 0 mm 4 mps 749 mmHg 55%
    21:00 +22°C° 0 mm 5 mps 749 mmHg 59%
    22:00 +21°C° 0 mm 5 mps 749 mmHg 65%
    23:00 +20°C° 0 mm 4 mps 749 mmHg 71%

    22 September, Sunday

    Time Temperature Precipitation Wind Pressure Humidity
    00:00 +19°C° 0 mm 3 mps 748 mmHg 76%
    01:00 +19°C° 0 mm 3 mps 748 mmHg 77%
    02:00 +19°C° 0 mm 3 mps 748 mmHg 77%
    03:00 +18°C° 0 mm 3 mps 748 mmHg 77%
    04:00 +18°C° 0 mm 3 mps 747 mmHg 80%
    05:00 +18°C° 0 mm 3 mps 747 mmHg 82%
    06:00 +17°C° 0 mm 3 mps 747 mmHg 84%
    07:00 +18°C° 0.2 mm 4 mps 747 mmHg 82%
    08:00 +19°C° 0.2 mm 4 mps 748 mmHg 80%
    09:00 +20°C° 0.2 mm 5 mps 748 mmHg 77%
    10:00 +20°C° 0.1 mm 5 mps 748 mmHg 76%
    11:00 +20°C° 0.1 mm 5 mps 748 mmHg 74%
    12:00 +20°C° 0.1 mm 5 mps 749 mmHg 72%
    13:00 +19°C° 0.6 mm 5 mps 749 mmHg 74%
    14:00 +19°C° 0.6 mm 4 mps 749 mmHg 76%
    15:00 +18°C° 0.6 mm 4 mps 749 mmHg 78%
    16:00 +18°C° 0.2 mm 4 mps 749 mmHg 79%
    17:00 +17°C° 0.2 mm 4 mps 749 mmHg 80%
    18:00 +17°C° 0.2 mm 4 mps 750 mmHg 82%
    19:00 +17°C° 0.1 mm 4 mps 750 mmHg 82%
    20:00 +15°C° 0.1 mm 4 mps 751 mmHg 82%
    21:00 +15°C° 0.1 mm 5 mps 752 mmHg 82%
    22:00 +15°C° 0 mm 4 mps 752 mmHg 82%
    23:00 +14°C° 0 mm 4 mps 752 mmHg 82%

    23 September, Monday

    Time Temperature Precipitation Wind Pressure Humidity
    00:00 +14°C° 0 mm 4 mps 752 mmHg 82%
    01:00 +13°C° 0 mm 4 mps 753 mmHg 84%
    02:00 +12°C° 0 mm 4 mps 753 mmHg 86%
    03:00 +11°C° 0 mm 3 mps 753 mmHg 89%
    04:00 +11°C° 0 mm 3 mps 753 mmHg 89%
    05:00 +11°C° 0 mm 3 mps 753 mmHg 90%
    06:00 +11°C° 0 mm 3 mps 754 mmHg 91%
    07:00 +12°C° 0 mm 3 mps 754 mmHg 82%
    08:00 +14°C° 0 mm 4 mps 754 mmHg 74%
    09:00 +17°C° 0 mm 4 mps 754 mmHg 66%
    10:00 +19°C° 0 mm 4 mps 754 mmHg 60%
    11:00 +20°C° 0 mm 4 mps 754 mmHg 54%
    12:00 +22°C° 0 mm 5 mps 753 mmHg 49%
    13:00 +22°C° 0.1 mm 5 mps 753 mmHg 46%
    14:00 +22°C° 0.1 mm 5 mps 753 mmHg 43%
    15:00 +23°C° 0.1 mm 5 mps 752 mmHg 40%
    16:00 +21°C° 0 mm 5 mps 752 mmHg 48%
    17:00 +20°C° 0 mm 4 mps 753 mmHg 56%
    18:00 +18°C° 0 mm 4 mps 753 mmHg 64%
    19:00 +18°C° 0.9 mm 4 mps 753 mmHg 72%
    20:00 +17°C° 0.9 mm 4 mps 753 mmHg 80%
    21:00 +15°C° 0.9 mm 4 mps 754 mmHg 88%
    22:00 +15°C° 0.1 mm 4 mps 754 mmHg 88%
    23:00 +15°C° 0.1 mm 5 mps 753 mmHg 88%

    24 September, Tuesday

    Time Temperature Precipitation Wind Pressure Humidity
    00:00 +15°C° 0.1 mm 5 mps 753 mmHg 87%
    01:00 +15°C° 0.1 mm 5 mps 753 mmHg 87%
    02:00 +15°C° 0.1 mm 5 mps 753 mmHg 87%
    03:00 +15°C° 0.1 mm 4 mps 753 mmHg 87%
    04:00 +15°C° 0 mm 4 mps 752 mmHg 88%
    05:00 +15°C° 0 mm 4 mps 752 mmHg 88%
    06:00 +15°C° 0 mm 4 mps 752 mmHg 88%
    07:00 +17°C° 0.3 mm 4 mps 752 mmHg 88%
    08:00 +16°C° 0.3 mm 5 mps 752 mmHg 88%
    09:00 +17°C° 0.3 mm 5 mps 752 mmHg 88%
    10:00 +17°C° 0.2 mm 5 mps 752 mmHg 87%
    11:00 +17°C° 0.2 mm 5 mps 752 mmHg 86%
    12:00 +17°C° 0.2 mm 5 mps 752 mmHg 86%
    13:00 +17°C° 0.4 mm 6 mps 751 mmHg 86%
    14:00 +17°C° 0.4 mm 6 mps 751 mmHg 87%
    15:00 +16°C° 0.4 mm 6 mps 750 mmHg 87%
    16:00 +17°C° 0.2 mm 6 mps 750 mmHg 87%
    17:00 +17°C° 0.2 mm 5 mps 750 mmHg 88%
    18:00 +17°C° 0.2 mm 5 mps 749 mmHg 88%
    19:00 +17°C° 0 mm 5 mps 750 mmHg 89%
    20:00 +17°C° 0 mm 5 mps 750 mmHg 89%
    21:00 +17°C° 0 mm 5 mps 750 mmHg 90%
    22:00 +17°C° 0.2 mm 5 mps 749 mmHg 90%
    23:00 +17°C° 0.2 mm 5 mps 749 mmHg 91%
    Show more